Regional Weather Roundup
Issued by NWS Cleveland, OH

Home | Current Version | Previous Version | Text Only | Print | Product List | Glossary Off
Versions: 1 2 3 4 5 6 7 8 9 10 11 12 13 14 15 16 17 18 19 20 21 22 23 24 25 26 27 28 29 30 31 32 33 34 35 36 37 38 39 40 41 42 43 44 45 46 47 48 49 50

000
ASUS41 KCLE 290902
RWRCLE
OHIO REGIONAL WEATHER ROUNDUP
NATIONAL WEATHER SERVICE CLEVELAND, OH
500 AM EDT WED MAR 29 2017

NOTE: "FAIR" INDICATES FEW OR NO CLOUDS BELOW 12,000 FEET WITH NO
SIGNIFICANT WEATHER AND/OR OBSTRUCTIONS TO VISIBILITY.

OHZ001>008-015>018-024>027-034-035-043-044-291000-
   NORTHWEST OHIO

CITY           SKY/WX    TMP DP  RH WIND       PRES   REMARKS
DEFIANCE       CLEAR     35  32  88 E3        30.22S
FINDLAY        CLOUDY    38  31  76 NE7       30.19F
TOLEDO EXPRESS CLOUDY    35  33  92 NE5       30.22S
TOLEDO EXEC    PTCLDY    38  34  85 NE7       30.23R
LIMA           PTCLDY    36  34  92 NE9       30.18F
$$

OHZ009>014-019>023-028>033-038-089-291000-
   NORTHEAST OHIO

CITY           SKY/WX    TMP DP  RH WIND       PRES   REMARKS
CLE-HOPKINS    MOCLDY    38  33  82 N6        30.21F
CLE-LAKEFRONT  CLOUDY    37  35  92 NW3       30.19S
CUY CO. ARPT   NOT AVBL
LORAIN-ELYRIA  CLOUDY    36  32  85 N3        30.20S
ASHTABULA      PTCLDY    38  36  92 E3        30.18F
AKRON-CANTON   CLOUDY    40  37  89 N6        30.15F FOG
WOOSTER        CLOUDY    39  37  92 N5        30.17S
MANSFIELD      CLOUDY    39  37  92 NE6       30.17S
YOUNGSTOWN     CLOUDY    40  38  93 N9        30.16S
$$

OHZ042-051>053-060>062-070>072-077>081-291000-
  SOUTHWEST OHIO

CITY           SKY/WX    TMP DP  RH WIND       PRES   REMARKS
CINC-COVINGTON CLOUDY    49  44  83 NE12      30.13R
CINC-LUNKEN    CLOUDY    48  44  86 NE14      30.16R
HAMILTON       CLOUDY    47  43  86 E12       30.16R
DAYTON         CLOUDY    42  38  85 NE10      30.15F
WRIGHT-PAT AFB CLOUDY    44  40  86 NE10      30.15F
DAYTON GENERAL CLOUDY    43  38  82 E12       30.14F
WILMINGTON     CLEAR     40  38  93 NE8       30.15R
$$

OHZ036-037-039>041-045>050-054>059-063>069-073>076-082>088-291000-
  CENTRAL AND SOUTHEAST OHIO

CITY           SKY/WX    TMP DP  RH WIND       PRES   REMARKS
COLUMBUS       CLOUDY    41  37  86 NE7       30.16S
OSU AIRPORT    CLOUDY    38  36  92 NE10      30.17R
BOLTON FIELD   PTCLDY    38  35  87 N9        30.17R
RICKENBACK AFB CLOUDY    41  37  87 NE13      30.17R
NEWARK         CLOUDY    42  38  85 N5        30.15F
MARION         CLOUDY    39  36  89 NE10      30.19R
LANCASTER      MOCLDY    41  37  86 N8        30.16S
ZANESVILLE     CLOUDY    44  38  79 N3        30.15S
NEW PHILLY     NOT AVBL
$$




USA.gov is the U.S. government's official web portal to all federal, state and local government web resources and services.